sat.trackr.live / text

‹ back to catalog

STARLINK-32667

NORAD 62201 · 2024-229K

PAYLOAD ACTIVE UNKNOWN

§ Identity

Operator
Country
US
Launch date
2024-12-04
Launch site
AFETR
Launch vehicle
Mass (kg)
RCS (m²)

Purposes: comms

External: N2YO · Heavens-Above · Gunter

§ Orbital elements

Epoch: 2026-05-25T04:16:14.473920Z

Period
94.27 min
Inclination
42.9997°
Eccentricity
0.0001318
Mean motion
15.27591121 rev/d
Perigee alt
482.1 km
Apogee alt
483.9 km
Semi-major
6,861.2 km
B*
1.0772e-3
RAAN
198.3732°
Arg perigee
264.2392°
Mean anomaly
95.8310°
Rev number
8,226

§ Raw data

STARLINK-326671 62201U 24229K   26145.17794530  .00029509  00000+0  10772-2 0  99972 62201  42.9997 198.3732 0001318 264.2392  95.8310 15.27591121 82265

JSON: /api/v1/satellites/62201 · /tle

For live sub-satellite position, see the globe view (requires WebGL).

§ Visibility from observer

Set your observer location to see the next 7 days of passes ≥ 10°. The values pass through the URL so the page stays shareable.

No JS? Fill the form by hand. The geolocation button needs JavaScript.